sat.trackr.live / text

‹ back to catalog

STARLINK-32663

NORAD 62197 · 2024-229F

PAYLOAD ACTIVE UNKNOWN

§ Identity

Operator
Country
US
Launch date
2024-12-04
Launch site
AFETR
Launch vehicle
Mass (kg)
RCS (m²)

Purposes: comms

External: N2YO · Heavens-Above · Gunter

§ Orbital elements

Epoch: 2026-09-21T10:23:02.415840Z

Period
94.27 min
Inclination
43.0007°
Eccentricity
0.0001387
Mean motion
15.27574007 rev/d
Perigee alt
482.1 km
Apogee alt
484.0 km
Semi-major
6,861.2 km
B*
1.8968e-4
RAAN
245.6127°
Arg perigee
264.5792°
Mean anomaly
95.4902°
Rev number
10,049

§ Raw data

STARLINK-326631 62197U 24229F   26264.43266685  .00004960  00000+0  18968-3 0  99972 62197  43.0007 245.6127 0001387 264.5792  95.4902 15.27574007100493

JSON: /api/v1/satellites/62197 · /tle

For live sub-satellite position, see the globe view (requires WebGL).

§ Visibility from observer

Set your observer location to see the next 7 days of passes ≥ 10°. The values pass through the URL so the page stays shareable.

No JS? Fill the form by hand. The geolocation button needs JavaScript.